TimeEDT,TemperatureF,Dew PointF,Humidity,Sea Level PressureIn,VisibilityMPH,Wind Direction,Wind SpeedMPH,Gust SpeedMPH,PrecipitationIn,Events,Conditions,WindDirDegrees,DateUTC
12:54 AM,66.0,55.0,68,30.06,10.0,SSW,8.1,-,N/A,,Clear,210,2013-04-25 04:54:00
1:54 AM,64.0,55.0,73,30.06,10.0,SW,5.8,-,N/A,,Clear,220,2013-04-25 05:54:00
2:54 AM,64.0,54.0,70,30.05,10.0,SW,5.8,-,N/A,,Overcast,220,2013-04-25 06:54:00
3:54 AM,64.0,55.0,73,30.06,10.0,SW,5.8,-,N/A,,Overcast,220,2013-04-25 07:54:00
4:54 AM,63.0,55.9,78,30.08,10.0,WSW,3.5,-,N/A,,Overcast,240,2013-04-25 08:54:00
5:54 AM,61.0,57.0,87,30.10,10.0,Calm,Calm,-,N/A,,Overcast,0,2013-04-25 09:54:00
6:54 AM,61.0,57.9,90,30.13,10.0,Calm,Calm,-,N/A,,Overcast,0,2013-04-25 10:54:00
7:15 AM,62.6,59.0,88,30.14,10.0,Calm,Calm,-,N/A,,Overcast,0,2013-04-25 11:15:00
7:54 AM,64.0,57.9,80,30.17,10.0,NNE,11.5,17.3,N/A,,Overcast,20,2013-04-25 11:54:00
8:06 AM,64.4,55.4,73,30.17,10.0,NNE,11.5,-,N/A,,Overcast,20,2013-04-25 12:06:00
8:21 AM,64.4,55.4,73,30.18,10.0,NNE,13.8,18.4,N/A,,Overcast,30,2013-04-25 12:21:00
8:54 AM,63.0,51.1,65,30.19,10.0,North,13.8,-,N/A,,Overcast,360,2013-04-25 12:54:00
9:54 AM,64.0,50.0,60,30.20,7.0,NNE,12.7,-,N/A,,Overcast,20,2013-04-25 13:54:00
10:54 AM,66.9,52.0,59,30.21,10.0,North,9.2,-,N/A,,Mostly Cloudy,360,2013-04-25 14:54:00
11:54 AM,71.1,53.1,53,30.20,10.0,North,10.4,16.1,N/A,,Mostly Cloudy,360,2013-04-25 15:54:00
12:54 PM,71.1,53.1,53,30.19,10.0,North,6.9,-,N/A,,Scattered Clouds,10,2013-04-25 16:54:00
1:54 PM,72.0,53.1,51,30.19,10.0,NNE,4.6,-,N/A,,Mostly Cloudy,30,2013-04-25 17:54:00
2:54 PM,75.0,54.0,48,30.19,10.0,Variable,3.5,-,N/A,,Mostly Cloudy,0,2013-04-25 18:54:00
3:54 PM,73.0,52.0,48,30.18,10.0,NNE,6.9,-,N/A,,Mostly Cloudy,20,2013-04-25 19:54:00
4:54 PM,73.9,53.1,48,30.17,10.0,Variable,3.5,-,N/A,,Mostly Cloudy,0,2013-04-25 20:54:00
5:54 PM,73.0,50.0,44,30.17,10.0,Calm,Calm,-,N/A,,Partly Cloudy,0,2013-04-25 21:54:00
6:54 PM,70.0,51.1,51,30.17,10.0,East,3.5,-,N/A,,Clear,80,2013-04-25 22:54:00
7:54 PM,60.1,54.0,80,30.19,10.0,Calm,Calm,-,N/A,,Clear,0,2013-04-25 23:54:00
8:54 PM,55.0,52.0,89,30.21,10.0,Calm,Calm,-,N/A,,Clear,0,2013-04-26 00:54:00
9:54 PM,60.1,57.0,90,30.25,10.0,ESE,4.6,-,N/A,,Clear,120,2013-04-26 01:54:00
10:54 PM,57.9,55.9,93,30.26,8.0,SE,5.8,-,N/A,,Clear,130,2013-04-26 02:54:00
11:54 PM,53.1,52.0,96,30.27,6.0,Calm,Calm,-,N/A,,Clear,0,2013-04-26 03:54:00